Preview of NWS' New Version of Forecast
This preview is not operational and should not be used for support decisions.

Regional Weather Roundup (RWR)

Issued by National Weather Service (NWS)

                            
000
ASUS43 KTOP 210459
RWRKS 

WEATHER ROUNDUP FOR KANSAS
NATIONAL WEATHER SERVICE GOODLAND KS
1200 AM CDT WED AUG 21 2019

NOTE:  "FAIR" INDICATES FEW OR NO CLOUDS BELOW 12,000 FEET WITH NO
SIGNIFICANT WEATHER AND/OR OBSTRUCTIONS TO VISIBILITY.

KSZ001>006-013>018-027>032-041>047-210600-
NORTHWEST KANSAS
  
CITY           SKY/WX    TMP DP  RH WIND       PRES   REMARKS
GOODLAND       MOCLDY    79  54  41 SE17G31   30.06R                  
HAYS           PTCLDY    86  57  37 S8        29.81S                  
HILL CITY      CLEAR     77  67  71 E7        30.00R                  
RUSSELL        CLEAR     83  57  41 W13       29.96F                  
$$

KSZ061>065-074>080-084>089-210600-
SOUTHWEST KANSAS
  
CITY           SKY/WX    TMP DP  RH WIND       PRES   REMARKS
DODGE CITY     CLEAR     82  53  36 E6        30.04R                  
GARDEN CITY    CLEAR     80  54  40 SE10      30.03R                  
GREAT BEND     CLEAR     85  57  38 SE14G20   30.01R                  
LIBERAL        CLEAR     76  61  59 S6        30.04R                  
$$

KSZ066>073-081>083-090>101-210600-
SOUTHEAST KANSAS
  
CITY           SKY/WX    TMP DP  RH WIND       PRES   REMARKS
CHANUTE        CLEAR     83  75  77 S9        30.00S                  
COFFEYVILLE    CLEAR     80  76  87 S8        29.97F                  
HUTCHINSON     CLEAR     85  72  65 S9        29.98R                  
MEDICINE LODGE   N/A     80  65  59 N6        29.99F                  
NEWTON           N/A     82  73  74 S10       30.00R                  
PARSONS        CLEAR     81  76  84 S5        30.00F                  
WICHITA INTL   CLOUDY    83  73  72 S8        29.98R                  
WICHITA JABRA  CLEAR     84  73  69 S12       29.98S                  
WICHITA MCCONL CLEAR     85  70  60 SE12      29.99R                  
WINFIELD       CLEAR     84  72  67 S12       29.99S                  
$$

KSZ007>012-019>026-033>040-048>060-102>105-210600-
NORTHEAST KANSAS
  
CITY           SKY/WX    TMP DP  RH WIND       PRES   REMARKS
CONCORDIA      CLEAR     82  80  94 E6        29.97F                  
EMPORIA        CLEAR     81  76  84 S10       29.98R                  
LAWRENCE       CLEAR     82  76  81 E5        29.99R                  
MANHATTAN      CLEAR     79  76  90 CALM      29.97R                  
OLATHE IND     CLEAR     81  76  84 E6        30.01S                  
OLATHE EXE     MOCLDY    80  77  90 E3        30.01S                  
SALINA         CLEAR     82  75  79 S7        29.97R                  
TOPEKA BILLARD CLEAR     80  75  84 CALM      29.99R                  
TOPEKA FORBES  CLEAR     81  75  82 E3        29.99R                  
$$